RITE TARGET 2

Satellite information

Favourite Embed

Satellite Type and Status

PAYLOADIN ORBIT

Key statistics

Satellite RITE TARGET 2 at a glance.

Uptime

8240

Days in orbit

Revolutions

≈ 14.4

Per day

Orbit

SSO

Sun Synchronous Orbit

Inclination

98.7

Latest

Satellite identification and parameters

Extended collection of information and parameters for RITE TARGET 2.

Object identification

Identified? True

Debris? False

Object name: RITE TARGET 2

International designator: 2002-056G

Object number (NORAD): 28455

Object ID (CCSDS): 28455

Country: JAPAN (JPN)

Current information (Y/N): Y

RCS size: SMALL

Orbital parameters

Period: 100.237 minutes

Inclination: 98.7105 deg

SMA: 7147.906 km

Apoapsis: 777.151 km

Periapsis: 762.391 km

RAAN: 152.9515 deg

Eccentricy: 0.0010325

Argument of periapsis: 149.5426 deg

Mean anomaly: 210.6361 deg

Mean motion: 14.36595595 rev/day

Mean motion (dot): 0.00000553 rev/day2

B* drag term: 0.00020342 1/REarth

Two-line elements (TLE)

Creation date: July 5, 2025, 5:45 p.m.

Reference frame: TEME

Reference center: EARTH

Epoch: July 5, 2025, 2:58 a.m. UTC

TLE line 0: 0 RITE TARGET 2

TLE line 1: 1 28455U 02056G 25186.12389835 .00000553 00000-0 20342-3 0 9995

TLE line 2: 2 28455 98.7105 152.9515 0010325 149.5426 210.6361 14.36595595625145

Live tracking on map

Real-time ground track for satellite RITE TARGET 2.

In-orbit conjunctions

A list of the most updated potential collisions computed for object RITE TARGET 2.

Target Orbit TCA Probability of collision Miss distance Type
CZ-6A DEB SSO 2025-02-03 14:21:55 0.0001667259 969.0 (m) DEBRIS
COSMOS 1818 COOLANT LEO 2025-01-15 16:15:49 0.0001269343 577.0 (m) DEBRIS
COSMOS 1302 LEO 2024-07-22 16:02:27 0.0001428871 656.0 (m) PAYLOAD

Associated space launch

Midori II has been engaged in various observation missions to understand the realities and causes of global environmental changes, such as abnormal weather conditions and the expansion of the ozone hole.

RITE TARGET 2 was lifted into orbit during the mission ‘H-IIA 202 | Midori-2’, on board a H-IIA space rocket.

The launch took place on Dec. 14, 2002, 1:31 a.m. from Yoshinobu Launch Complex LP-1.

For more information about the launch, click the button.

Launch to space H-IIA 202 | Midori-2
H-IIA 202 | Midori-2

Agency: N/A

Status: Launch Successful

Launch date: Dec. 14, 2002, 1:31 a.m. UTC

Rocket: H-IIA

Launch pad: Yoshinobu Launch Complex LP-1

Location: Tanegashima Space Center, Japan

...

Latest news about this satellite

There are no fresh news available about this satellite. Check back as we update our databases every day.


Newsletter sign-up

Weekly statistics, charts and insights to help you stay on top of the space industry.